SOYUZ-MS 12 (44069 NORAD) Tracking and Keplerian Element Data

This shows tracking and keplerian element data for the satellite.

Feedback or suggestion? Click here.




ElementValue
Catalog44069
NameSOYUZ-MS 12
Epoch Orbit19191
Epoch Day275.53299769
Epoch Year2019
RAAN188.93
Inclination51.6438
Eccentricity0.0007517
Argument of Perigee107.4717
Mean Anonmoly257.5636
Mean Motion15.50137004
Decay Rate2.623E-05
L11 44069U 19013A 19275.53299769 .00002623 00000-0 53703-4 0 9996
L22 44069 51.6438 188.9300 0007517 107.4717 257.5636 15.50137004191919



Live tracking and technical data element details for SOYUZ-MS 12 (NORAD 44069). SOYUZ-MS 12 can be tracked NOW for your location showing map with azimuth and elevation plus other details from your city location.







IsCatalogInMostPopularTable: catalog: 44069, numindb: 347
Update: records affected: 1



GetName: 44069 SOYUZ-MS 12

Hit Count: updated at: Thu, 15 May 2025 11:03:52 GMT